TimeEDT,TemperatureF,Dew PointF,Humidity,Sea Level PressureIn,VisibilityMPH,Wind Direction,Wind SpeedMPH,Gust SpeedMPH,PrecipitationIn,Events,Conditions,WindDirDegrees,DateUTC
12:53 AM,60.1,55.0,83,29.90,10.0,WSW,5.8,-,N/A,,Overcast,240,2013-04-25 04:53:00
1:53 AM,59.0,44.1,58,29.92,10.0,West,9.2,19.6,N/A,,Overcast,280,2013-04-25 05:53:00
2:53 AM,55.9,42.1,60,29.95,10.0,West,12.7,24.2,N/A,,Overcast,280,2013-04-25 06:53:00
3:53 AM,51.1,33.1,50,30.02,10.0,NW,13.8,24.2,N/A,,Overcast,310,2013-04-25 07:53:00
4:53 AM,48.0,30.0,50,30.06,10.0,NW,16.1,31.1,0.00,,Mostly Cloudy,320,2013-04-25 08:53:00
5:53 AM,46.9,30.9,54,30.11,10.0,NW,11.5,-,N/A,,Partly Cloudy,310,2013-04-25 09:53:00
6:53 AM,45.0,28.9,53,30.17,10.0,NNW,10.4,19.6,N/A,,Clear,340,2013-04-25 10:53:00
7:53 AM,46.0,27.0,47,30.19,10.0,NW,10.4,21.9,N/A,,Clear,320,2013-04-25 11:53:00
8:53 AM,48.0,25.0,41,30.20,10.0,NW,12.7,19.6,N/A,,Clear,320,2013-04-25 12:53:00
9:53 AM,50.0,25.0,38,30.21,10.0,NNW,9.2,21.9,N/A,,Clear,330,2013-04-25 13:53:00
10:53 AM,52.0,21.9,31,30.22,10.0,NNW,9.2,19.6,N/A,,Clear,330,2013-04-25 14:53:00
11:53 AM,54.0,24.1,31,30.22,10.0,NW,8.1,-,N/A,,Clear,320,2013-04-25 15:53:00
12:53 PM,57.9,21.9,25,30.20,10.0,Variable,6.9,-,N/A,,Clear,0,2013-04-25 16:53:00
1:53 PM,60.1,21.0,22,30.19,10.0,NNW,11.5,16.1,N/A,,Clear,330,2013-04-25 17:53:00
2:53 PM,62.1,18.0,18,30.18,10.0,WNW,6.9,-,N/A,,Clear,300,2013-04-25 18:53:00
3:53 PM,63.0,18.0,18,30.17,10.0,NW,9.2,17.3,N/A,,Clear,310,2013-04-25 19:53:00
4:53 PM,64.0,21.9,20,30.17,10.0,NW,3.5,-,N/A,,Clear,320,2013-04-25 20:53:00
5:53 PM,62.1,23.0,22,30.18,10.0,SE,5.8,-,N/A,,Clear,130,2013-04-25 21:53:00
6:53 PM,63.0,16.0,16,30.19,10.0,West,3.5,-,N/A,,Clear,270,2013-04-25 22:53:00
7:53 PM,61.0,19.9,21,30.20,10.0,WSW,3.5,-,N/A,,Clear,240,2013-04-25 23:53:00
8:53 PM,57.9,24.1,27,30.23,10.0,Calm,Calm,-,N/A,,Clear,0,2013-04-26 00:53:00
9:53 PM,54.0,26.1,34,30.26,10.0,Calm,Calm,-,N/A,,Clear,0,2013-04-26 01:53:00
10:53 PM,50.0,27.0,41,30.27,10.0,Calm,Calm,-,N/A,,Clear,0,2013-04-26 02:53:00
11:53 PM,48.9,30.0,48,30.28,10.0,SSW,3.5,-,N/A,,Clear,210,2013-04-26 03:53:00